EJU92XV EGHI-LEPA

Flight info

Callsign EJU92XV
Flight time 1h 57m
Altitude 35000
Route GWC UN859 SOPIL DCT BALAN DCT EVPOK DCT NARAK DCT GAI DCT LOMRA DCT ROCAN DCT IBRAP DCT LUKEV DCT LORES
Aircraft A320/M-SDE2E3FGHIJ1RWXYZ/LB1

Departure

Time 2026-05-06 11:53
Airport Southampton Airport (EGHI)

Arrival

Time 2026-05-06 13:51
Airport Palma de Mallorca Airport (LEPA)
Time Latitude Longitude Altitude Speed Heading
2026-05-06 11:25 50.94959 -1.36057 39 ft 0 kts 19°
2026-05-06 11:45 50.94941 -1.36067 38 ft 4 kts 19°
2026-05-06 11:46 50.94920 -1.36078 38 ft 4 kts 26°
2026-05-06 11:46 50.94909 -1.36090 38 ft 4 kts 74°
2026-05-06 11:46 50.94911 -1.36125 39 ft 4 kts 109°
2026-05-06 11:46 50.94915 -1.36141 39 ft 0 kts 109°
2026-05-06 11:48 50.94914 -1.36139 39 ft 2 kts 109°
2026-05-06 11:49 50.94898 -1.36069 37 ft 7 kts 109°
2026-05-06 11:49 50.94868 -1.36027 39 ft 8 kts 183°
2026-05-06 11:49 50.94810 -1.36057 39 ft 8 kts 199°
2026-05-06 11:49 50.94759 -1.36085 39 ft 7 kts 199°
2026-05-06 11:50 50.94715 -1.36109 39 ft 6 kts 199°
2026-05-06 11:50 50.94679 -1.36129 39 ft 5 kts 199°
2026-05-06 11:50 50.94651 -1.36144 39 ft 5 kts 192°
2026-05-06 11:50 50.94628 -1.36135 39 ft 0 kts 154°
2026-05-06 11:51 50.94618 -1.36127 38 ft 4 kts 154°
2026-05-06 11:51 50.94590 -1.36093 39 ft 5 kts 125°
2026-05-06 11:51 50.94571 -1.36009 39 ft 10 kts 108°
2026-05-06 11:51 50.94516 -1.35966 38 ft 11 kts 193°
2026-05-06 11:52 50.94434 -1.36010 38 ft 13 kts 199°
2026-05-06 11:52 50.94352 -1.36049 37 ft 12 kts 180°
2026-05-06 11:52 50.94304 -1.36061 36 ft 6 kts 267°
2026-05-06 11:52 50.94335 -1.36066 35 ft 6 kts 19°
2026-05-06 11:53 50.94507 -1.35970 36 ft 62 kts 20°
2026-05-06 11:53 50.95141 -1.35616 43 ft 128 kts 19°
2026-05-06 11:53 50.95990 -1.35149 487 ft 134 kts 20°
2026-05-06 11:53 50.96927 -1.34615 962 ft 150 kts 20°
2026-05-06 11:54 50.97961 -1.33995 1158 ft 175 kts 20°
2026-05-06 11:54 50.99180 -1.33206 1501 ft 202 kts 24°
2026-05-06 11:54 51.00322 -1.31711 1940 ft 230 kts 54°
2026-05-06 11:54 51.00867 -1.29224 2514 ft 252 kts 85°
2026-05-06 11:55 51.00471 -1.26468 3368 ft 263 kts 111°
2026-05-06 11:55 50.99707 -1.23800 4281 ft 268 kts 111°
2026-05-06 11:55 50.98910 -1.21091 5125 ft 274 kts 112°
2026-05-06 11:55 50.98091 -1.18322 5952 ft 280 kts 113°
2026-05-06 11:56 50.97254 -1.15494 6757 ft 286 kts 113°
2026-05-06 11:56 50.96405 -1.12616 7595 ft 289 kts 113°
2026-05-06 11:56 50.95550 -1.09711 8452 ft 292 kts 113°
2026-05-06 11:56 50.94686 -1.06766 9310 ft 295 kts 113°
2026-05-06 11:57 50.93815 -1.03796 10134 ft 298 kts 113°
2026-05-06 11:57 50.92920 -1.00731 10541 ft 318 kts 113°
2026-05-06 11:57 50.91961 -0.97452 10904 ft 335 kts 114°
2026-05-06 11:57 50.90967 -0.94063 11514 ft 343 kts 114°
2026-05-06 11:58 50.89952 -0.90619 12214 ft 349 kts 114°
2026-05-06 11:58 50.88914 -0.87119 12907 ft 353 kts 114°
2026-05-06 11:58 50.87866 -0.83590 13644 ft 357 kts 115°
2026-05-06 11:58 50.86796 -0.80037 14331 ft 359 kts 117°
2026-05-06 11:59 50.85429 -0.76715 14943 ft 364 kts 129°
2026-05-06 11:59 50.83642 -0.73878 15616 ft 365 kts 142°
2026-05-06 11:59 50.81543 -0.71593 16210 ft 369 kts 149°
2026-05-06 11:59 50.79369 -0.69396 16825 ft 372 kts 148°
2026-05-06 12:00 50.77182 -0.67178 17462 ft 375 kts 148°
2026-05-06 12:00 50.74976 -0.64937 18101 ft 378 kts 149°
2026-05-06 12:00 50.72755 -0.62685 18676 ft 381 kts 149°
2026-05-06 12:00 50.70518 -0.60416 19219 ft 384 kts 149°
2026-05-06 12:01 50.68266 -0.58133 19774 ft 386 kts 149°
2026-05-06 12:01 50.66002 -0.55840 20339 ft 388 kts 149°
2026-05-06 12:01 50.63719 -0.53532 20894 ft 390 kts 148°
2026-05-06 12:01 50.61428 -0.51220 21494 ft 392 kts 149°
2026-05-06 12:02 50.59126 -0.48899 22055 ft 394 kts 149°
2026-05-06 12:02 50.56808 -0.46560 22606 ft 397 kts 149°
2026-05-06 12:02 50.54477 -0.44211 23144 ft 400 kts 149°
2026-05-06 12:02 50.52126 -0.41846 23649 ft 402 kts 149°
2026-05-06 12:03 50.49761 -0.39469 24084 ft 405 kts 149°
2026-05-06 12:03 50.47382 -0.37086 24503 ft 407 kts 149°
2026-05-06 12:03 50.44985 -0.34693 24917 ft 409 kts 149°
2026-05-06 12:03 50.42575 -0.32288 25335 ft 411 kts 149°
2026-05-06 12:04 50.40159 -0.29873 25731 ft 413 kts 149°
2026-05-06 12:04 50.37728 -0.27444 26131 ft 415 kts 149°
2026-05-06 12:04 50.35287 -0.25011 26513 ft 417 kts 149°
2026-05-06 12:04 50.32832 -0.22572 26884 ft 419 kts 149°
2026-05-06 12:05 50.30362 -0.20121 27245 ft 422 kts 149°
2026-05-06 12:05 50.27875 -0.17657 27596 ft 424 kts 149°
2026-05-06 12:05 50.25376 -0.15186 27951 ft 426 kts 149°
2026-05-06 12:05 50.22865 -0.12701 28304 ft 428 kts 149°
2026-05-06 12:06 50.20342 -0.10209 28654 ft 430 kts 149°
2026-05-06 12:06 50.17806 -0.07702 28982 ft 432 kts 149°
2026-05-06 12:06 50.15256 -0.05187 29299 ft 435 kts 149°
2026-05-06 12:06 50.12695 -0.02667 29613 ft 437 kts 150°
2026-05-06 12:07 50.10018 -0.00424 29919 ft 437 kts 158°
2026-05-06 12:07 50.07151 0.01148 30173 ft 438 kts 166°
2026-05-06 12:07 50.04187 0.02305 30422 ft 440 kts 167°
2026-05-06 12:07 50.01211 0.03467 30665 ft 442 kts 167°
2026-05-06 12:08 49.98226 0.04638 30916 ft 444 kts 167°
2026-05-06 12:08 49.95228 0.05819 31120 ft 446 kts 166°
2026-05-06 12:08 49.92216 0.07006 31365 ft 447 kts 166°
2026-05-06 12:08 49.89206 0.08191 31699 ft 446 kts 166°
2026-05-06 12:09 49.86203 0.09373 32017 ft 445 kts 166°
2026-05-06 12:09 49.83206 0.10550 32362 ft 444 kts 166°
2026-05-06 12:09 49.80215 0.11718 32674 ft 444 kts 166°
2026-05-06 12:09 49.77222 0.12884 32985 ft 443 kts 166°
2026-05-06 12:10 49.74232 0.14045 33283 ft 443 kts 166°
2026-05-06 12:10 49.71279 0.15190 33577 ft 443 kts 166°
2026-05-06 12:10 49.68251 0.16365 33906 ft 443 kts 166°
2026-05-06 12:10 49.65310 0.17520 34172 ft 442 kts 165°
2026-05-06 12:11 49.62334 0.18710 34433 ft 441 kts 165°
2026-05-06 12:11 49.59363 0.19912 34681 ft 441 kts 165°
2026-05-06 12:11 49.56392 0.21122 34891 ft 442 kts 166°
2026-05-06 12:11 49.53430 0.22331 34964 ft 438 kts 166°
2026-05-06 12:12 49.47571 0.24695 34971 ft 434 kts 165°
2026-05-06 12:12 49.41726 0.27034 34980 ft 434 kts 165°
2026-05-06 12:13 49.35886 0.29361 34972 ft 434 kts 166°
2026-05-06 12:13 49.30048 0.31680 34975 ft 434 kts 165°
2026-05-06 12:14 49.24219 0.34110 34969 ft 434 kts 164°
2026-05-06 12:14 49.18405 0.36600 34969 ft 433 kts 164°
2026-05-06 12:15 49.12590 0.39061 34962 ft 434 kts 165°
2026-05-06 12:15 49.06766 0.41497 34965 ft 434 kts 164°
2026-05-06 12:16 49.00935 0.43933 34962 ft 435 kts 164°
2026-05-06 12:16 48.95105 0.46370 34974 ft 434 kts 164°
2026-05-06 12:17 48.89277 0.48787 34980 ft 436 kts 165°
2026-05-06 12:17 48.83414 0.51218 34965 ft 435 kts 164°
2026-05-06 12:18 48.77580 0.53627 34964 ft 434 kts 165°
2026-05-06 12:18 48.71741 0.55942 34961 ft 433 kts 165°
2026-05-06 12:19 48.65892 0.58197 34963 ft 434 kts 165°
2026-05-06 12:19 48.60038 0.60462 34962 ft 435 kts 165°
2026-05-06 12:20 48.54169 0.62752 34974 ft 436 kts 165°
2026-05-06 12:20 48.48319 0.65067 34969 ft 434 kts 164°
2026-05-06 12:21 48.42487 0.67462 34966 ft 434 kts 164°
2026-05-06 12:21 48.36655 0.69864 34957 ft 434 kts 164°
2026-05-06 12:22 48.30817 0.72232 34965 ft 435 kts 165°
2026-05-06 12:22 48.24972 0.74578 34964 ft 435 kts 165°
2026-05-06 12:23 48.19165 0.76874 34972 ft 434 kts 165°
2026-05-06 12:23 48.13319 0.79156 34963 ft 434 kts 165°
2026-05-06 12:24 48.07483 0.81440 34964 ft 434 kts 165°
2026-05-06 12:24 48.01640 0.83731 34958 ft 434 kts 165°
2026-05-06 12:25 47.95799 0.86016 34962 ft 434 kts 166°
2026-05-06 12:25 47.89968 0.88286 34962 ft 433 kts 166°
2026-05-06 12:26 47.84147 0.90551 34960 ft 432 kts 166°
2026-05-06 12:26 47.78333 0.92806 34951 ft 431 kts 166°
2026-05-06 12:27 47.72522 0.95062 34943 ft 432 kts 166°
2026-05-06 12:27 47.66700 0.97309 34943 ft 432 kts 166°
2026-05-06 12:28 47.60879 0.99553 34939 ft 432 kts 166°
2026-05-06 12:28 47.55057 1.01793 34935 ft 432 kts 166°
2026-05-06 12:29 47.49269 1.04004 34934 ft 432 kts 166°
2026-05-06 12:29 47.43422 1.06082 34929 ft 432 kts 172°
2026-05-06 12:30 47.37422 1.06315 34933 ft 432 kts 181°
2026-05-06 12:30 47.31414 1.06168 34929 ft 432 kts 181°
2026-05-06 12:31 47.25402 1.06036 34926 ft 432 kts 181°
2026-05-06 12:31 47.19391 1.05900 34922 ft 432 kts 181°
2026-05-06 12:32 47.13372 1.05748 34918 ft 432 kts 181°
2026-05-06 12:32 47.07355 1.05610 34919 ft 433 kts 181°
2026-05-06 12:33 47.01331 1.05475 34919 ft 433 kts 181°
2026-05-06 12:33 46.96323 1.05289 34918 ft 433 kts 182°
2026-05-06 12:34 46.90300 1.04994 34914 ft 433 kts 182°
2026-05-06 12:34 46.84286 1.04712 34918 ft 433 kts 182°
2026-05-06 12:35 46.78262 1.04453 34915 ft 433 kts 182°
2026-05-06 12:35 46.72238 1.04201 34912 ft 433 kts 182°
2026-05-06 12:36 46.66211 1.03956 34917 ft 433 kts 182°
2026-05-06 12:36 46.60188 1.03703 34917 ft 433 kts 182°
2026-05-06 12:37 46.54158 1.03453 34914 ft 434 kts 182°
2026-05-06 12:37 46.48184 1.04489 34914 ft 434 kts 167°
2026-05-06 12:38 46.42293 1.06460 34913 ft 435 kts 168°
2026-05-06 12:38 46.36400 1.08424 34918 ft 435 kts 167°
2026-05-06 12:39 46.30504 1.10400 34906 ft 435 kts 168°
2026-05-06 12:39 46.24600 1.12362 34912 ft 435 kts 167°
2026-05-06 12:40 46.18694 1.14310 34916 ft 435 kts 168°
2026-05-06 12:40 46.12785 1.16259 34922 ft 435 kts 168°
2026-05-06 12:41 46.06883 1.18211 34919 ft 436 kts 168°
2026-05-06 12:41 46.00977 1.20161 34925 ft 435 kts 168°
2026-05-06 12:42 45.95082 1.22103 34928 ft 434 kts 168°
2026-05-06 12:42 45.89194 1.24040 34932 ft 434 kts 168°
2026-05-06 12:43 45.83309 1.25964 34924 ft 434 kts 168°
2026-05-06 12:43 45.77423 1.27888 34924 ft 434 kts 168°
2026-05-06 12:44 45.71538 1.29806 34914 ft 434 kts 169°
2026-05-06 12:44 45.65648 1.31716 34910 ft 434 kts 169°
2026-05-06 12:45 45.59762 1.33636 34918 ft 434 kts 169°
2026-05-06 12:46 45.50973 1.36471 34910 ft 434 kts 169°
2026-05-06 12:46 45.45081 1.38377 34911 ft 434 kts 169°
2026-05-06 12:47 45.39182 1.40285 34916 ft 435 kts 169°
2026-05-06 12:47 45.33282 1.42186 34916 ft 435 kts 169°
2026-05-06 12:48 45.27380 1.44080 34917 ft 435 kts 169°
2026-05-06 12:48 45.21469 1.45965 34918 ft 435 kts 169°
2026-05-06 12:49 45.15560 1.47849 34907 ft 435 kts 169°
2026-05-06 12:49 45.09654 1.49727 34910 ft 435 kts 169°
2026-05-06 12:50 45.03753 1.51603 34914 ft 435 kts 169°
2026-05-06 12:50 44.97854 1.53483 34929 ft 434 kts 170°
2026-05-06 12:51 44.91964 1.55355 34934 ft 433 kts 170°
2026-05-06 12:51 44.86085 1.57213 34941 ft 433 kts 170°
2026-05-06 12:52 44.80211 1.59062 34947 ft 432 kts 170°
2026-05-06 12:52 44.74344 1.60908 34946 ft 432 kts 170°
2026-05-06 12:53 44.68479 1.62746 34943 ft 432 kts 170°
2026-05-06 12:53 44.62616 1.64584 34943 ft 431 kts 170°
2026-05-06 12:54 44.56758 1.66423 34941 ft 431 kts 171°
2026-05-06 12:54 44.50911 1.68250 34952 ft 430 kts 171°
2026-05-06 12:55 44.45068 1.70066 34950 ft 430 kts 171°
2026-05-06 12:55 44.39233 1.71875 34941 ft 429 kts 171°
2026-05-06 12:56 44.33410 1.73681 34959 ft 428 kts 171°
2026-05-06 12:56 44.27596 1.75434 34964 ft 427 kts 173°
2026-05-06 12:57 44.21748 1.76778 34963 ft 425 kts 175°
2026-05-06 12:57 44.15899 1.77945 34963 ft 424 kts 175°
2026-05-06 12:58 44.10099 1.79156 34958 ft 424 kts 175°
2026-05-06 12:58 44.04274 1.80443 34961 ft 424 kts 175°
2026-05-06 12:59 43.98451 1.81743 34945 ft 423 kts 175°
2026-05-06 12:59 43.92631 1.82874 34953 ft 421 kts 179°
2026-05-06 13:00 43.86812 1.83442 34958 ft 419 kts 181°
2026-05-06 13:00 43.81000 1.83854 34950 ft 418 kts 181°
2026-05-06 13:01 43.75188 1.84353 34960 ft 418 kts 181°
2026-05-06 13:01 43.69386 1.84928 34961 ft 418 kts 181°
2026-05-06 13:02 43.63586 1.85507 34960 ft 418 kts 181°
2026-05-06 13:02 43.57794 1.86071 34946 ft 417 kts 181°
2026-05-06 13:03 43.52001 1.86628 34947 ft 417 kts 181°
2026-05-06 13:03 43.46214 1.87185 34948 ft 417 kts 181°
2026-05-06 13:04 43.40433 1.87734 34924 ft 416 kts 182°
2026-05-06 13:04 43.34659 1.88280 34939 ft 415 kts 182°
2026-05-06 13:05 43.28895 1.88831 34946 ft 415 kts 181°
2026-05-06 13:05 43.23134 1.89391 34946 ft 415 kts 181°
2026-05-06 13:06 43.17382 1.89939 34935 ft 414 kts 182°
2026-05-06 13:06 43.11633 1.90484 34939 ft 414 kts 182°
2026-05-06 13:07 43.05889 1.91027 34934 ft 413 kts 182°
2026-05-06 13:07 43.00198 1.91570 34929 ft 412 kts 182°
2026-05-06 13:08 42.94492 1.92107 34961 ft 410 kts 182°
2026-05-06 13:08 42.88809 1.92642 34970 ft 409 kts 182°
2026-05-06 13:09 42.83142 1.93181 34973 ft 408 kts 182°
2026-05-06 13:09 42.77489 1.93719 34972 ft 407 kts 182°
2026-05-06 13:10 42.71843 1.94250 34966 ft 407 kts 182°
2026-05-06 13:10 42.66197 1.95080 34959 ft 414 kts 173°
2026-05-06 13:11 42.60613 1.97091 34953 ft 415 kts 172°
2026-05-06 13:11 42.55036 1.99104 34939 ft 414 kts 172°
2026-05-06 13:12 42.49469 2.01100 34938 ft 415 kts 172°
2026-05-06 13:12 42.43906 2.03089 34942 ft 414 kts 172°
2026-05-06 13:13 42.38314 2.05089 34903 ft 414 kts 172°
2026-05-06 13:13 42.32742 2.07078 34913 ft 414 kts 172°
2026-05-06 13:14 42.27175 2.09060 34918 ft 414 kts 172°
2026-05-06 13:14 42.21599 2.11035 34900 ft 414 kts 172°
2026-05-06 13:15 42.16025 2.13007 34900 ft 415 kts 173°
2026-05-06 13:15 42.10440 2.14981 34901 ft 415 kts 172°
2026-05-06 13:16 42.04858 2.16950 34917 ft 415 kts 172°
2026-05-06 13:16 41.99270 2.18915 34912 ft 415 kts 172°
2026-05-06 13:17 41.93680 2.20885 34887 ft 415 kts 173°
2026-05-06 13:17 41.88098 2.22846 34904 ft 415 kts 173°
2026-05-06 13:18 41.82557 2.24783 34921 ft 414 kts 173°
2026-05-06 13:18 41.76976 2.26730 34930 ft 414 kts 173°
2026-05-06 13:19 41.71404 2.28688 34907 ft 414 kts 173°
2026-05-06 13:19 41.65830 2.30634 34926 ft 413 kts 173°
2026-05-06 13:20 41.60264 2.32571 34930 ft 413 kts 173°
2026-05-06 13:20 41.55604 2.34183 34928 ft 413 kts 173°
2026-05-06 13:21 41.50090 2.36091 34909 ft 412 kts 173°
2026-05-06 13:21 41.44535 2.38012 34932 ft 412 kts 173°
2026-05-06 13:22 41.38979 2.39939 34940 ft 412 kts 173°
2026-05-06 13:22 41.33427 2.41864 34946 ft 412 kts 173°
2026-05-06 13:23 41.27880 2.43779 34929 ft 412 kts 173°
2026-05-06 13:23 41.22338 2.45683 34940 ft 411 kts 173°
2026-05-06 13:24 41.16796 2.47572 34942 ft 411 kts 173°
2026-05-06 13:24 41.11260 2.49471 34942 ft 411 kts 173°
2026-05-06 13:25 41.05729 2.51371 34933 ft 411 kts 173°
2026-05-06 13:25 41.00196 2.53265 34938 ft 410 kts 174°
2026-05-06 13:26 40.94667 2.55151 34940 ft 410 kts 174°
2026-05-06 13:26 40.89136 2.57031 34941 ft 410 kts 174°
2026-05-06 13:27 40.83643 2.58894 34921 ft 410 kts 174°
2026-05-06 13:27 40.80895 2.59830 34595 ft 406 kts 174°
2026-05-06 13:27 40.78175 2.60759 34157 ft 402 kts 174°
2026-05-06 13:27 40.75482 2.61679 33683 ft 398 kts 174°
2026-05-06 13:28 40.72817 2.62585 33169 ft 394 kts 174°
2026-05-06 13:28 40.70171 2.63480 32683 ft 391 kts 174°
2026-05-06 13:28 40.67551 2.64362 32194 ft 387 kts 174°
2026-05-06 13:28 40.64950 2.65236 31709 ft 384 kts 174°
2026-05-06 13:29 40.62370 2.66103 31238 ft 381 kts 175°
2026-05-06 13:29 40.59804 2.66963 30786 ft 379 kts 175°
2026-05-06 13:29 40.57263 2.67818 30307 ft 376 kts 174°
2026-05-06 13:29 40.54735 2.68670 29834 ft 374 kts 174°
2026-05-06 13:30 40.52227 2.69514 29321 ft 371 kts 174°
2026-05-06 13:30 40.49757 2.70538 28836 ft 376 kts 165°
2026-05-06 13:30 40.47410 2.72123 28357 ft 380 kts 160°
2026-05-06 13:30 40.45105 2.73802 27891 ft 378 kts 160°
2026-05-06 13:31 40.42816 2.75469 27414 ft 375 kts 159°
2026-05-06 13:31 40.40544 2.77123 26952 ft 373 kts 159°
2026-05-06 13:31 40.38285 2.78766 26502 ft 370 kts 159°
2026-05-06 13:31 40.36070 2.80372 26064 ft 367 kts 159°
2026-05-06 13:32 40.33841 2.81983 25623 ft 365 kts 159°
2026-05-06 13:32 40.31622 2.83582 25188 ft 362 kts 159°
2026-05-06 13:32 40.29420 2.85171 24751 ft 360 kts 159°
2026-05-06 13:32 40.27233 2.86747 24327 ft 358 kts 159°
2026-05-06 13:33 40.25058 2.88313 23907 ft 356 kts 159°
2026-05-06 13:33 40.22898 2.89869 23485 ft 354 kts 159°
2026-05-06 13:33 40.20748 2.91418 22969 ft 351 kts 159°
2026-05-06 13:33 40.18611 2.92955 22503 ft 349 kts 158°
2026-05-06 13:34 40.16491 2.94482 22057 ft 347 kts 158°
2026-05-06 13:34 40.14381 2.96005 21625 ft 345 kts 158°
2026-05-06 13:34 40.12287 2.97517 21202 ft 343 kts 158°
2026-05-06 13:34 40.10205 2.99018 20785 ft 341 kts 158°
2026-05-06 13:35 40.08130 3.00506 20376 ft 338 kts 159°
2026-05-06 13:35 40.05977 3.01578 19981 ft 326 kts 174°
2026-05-06 13:35 40.03766 3.01875 19597 ft 315 kts 188°
2026-05-06 13:35 40.01635 3.01466 19203 ft 306 kts 201°
2026-05-06 13:36 39.99625 3.00589 18805 ft 304 kts 203°
2026-05-06 13:36 39.97628 2.99699 18392 ft 304 kts 203°
2026-05-06 13:36 39.95629 2.98812 17970 ft 303 kts 203°
2026-05-06 13:36 39.93635 2.97929 17552 ft 302 kts 203°
2026-05-06 13:37 39.91649 2.97051 17141 ft 301 kts 202°
2026-05-06 13:37 39.89671 2.96176 16730 ft 300 kts 202°
2026-05-06 13:37 39.87698 2.95305 16363 ft 299 kts 202°
2026-05-06 13:37 39.85736 2.94438 15993 ft 297 kts 203°
2026-05-06 13:38 39.83905 2.93269 15615 ft 291 kts 217°
2026-05-06 13:38 39.82408 2.91524 15249 ft 288 kts 232°
2026-05-06 13:38 39.81258 2.89412 14888 ft 286 kts 237°
2026-05-06 13:38 39.80145 2.87279 14558 ft 283 kts 237°
2026-05-06 13:39 39.79051 2.85193 14447 ft 275 kts 236°
2026-05-06 13:39 39.77984 2.83169 14320 ft 269 kts 236°
2026-05-06 13:39 39.76950 2.81212 14087 ft 261 kts 236°
2026-05-06 13:39 39.75926 2.79276 13583 ft 260 kts 236°
2026-05-06 13:40 39.74907 2.77347 13049 ft 258 kts 236°
2026-05-06 13:40 39.73892 2.75424 12504 ft 257 kts 236°
2026-05-06 13:40 39.72886 2.73514 11969 ft 256 kts 236°
2026-05-06 13:40 39.71884 2.71611 11447 ft 255 kts 236°
2026-05-06 13:41 39.70885 2.69716 10919 ft 254 kts 237°
2026-05-06 13:41 39.69890 2.67823 10447 ft 254 kts 237°
2026-05-06 13:41 39.68896 2.65929 10158 ft 253 kts 237°
2026-05-06 13:41 39.67910 2.64054 9826 ft 251 kts 237°
2026-05-06 13:42 39.66924 2.62189 9457 ft 250 kts 237°
2026-05-06 13:42 39.65940 2.60332 9091 ft 250 kts 237°
2026-05-06 13:42 39.64958 2.58476 8696 ft 249 kts 237°
2026-05-06 13:42 39.63978 2.56624 8339 ft 249 kts 237°
2026-05-06 13:43 39.63011 2.54798 7961 ft 248 kts 236°
2026-05-06 13:43 39.62035 2.52955 7593 ft 248 kts 236°
2026-05-06 13:43 39.61063 2.51119 7190 ft 246 kts 236°
2026-05-06 13:43 39.60091 2.49289 6792 ft 246 kts 236°
2026-05-06 13:44 39.59120 2.47461 6420 ft 246 kts 236°
2026-05-06 13:44 39.58150 2.45635 6029 ft 246 kts 236°
2026-05-06 13:44 39.57181 2.43815 5654 ft 244 kts 236°
2026-05-06 13:44 39.56124 2.42161 5512 ft 234 kts 218°
2026-05-06 13:45 39.54692 2.41319 5314 ft 225 kts 189°
2026-05-06 13:45 39.51836 2.42463 4488 ft 221 kts 143°
2026-05-06 13:45 39.50597 2.43642 3987 ft 221 kts 143°
2026-05-06 13:46 39.49356 2.44815 3618 ft 221 kts 143°
2026-05-06 13:46 39.48122 2.45977 3321 ft 219 kts 143°
2026-05-06 13:46 39.46909 2.47117 3153 ft 210 kts 143°
2026-05-06 13:46 39.45886 2.48371 3062 ft 198 kts 121°
2026-05-06 13:47 39.45430 2.49983 3004 ft 189 kts 96°
2026-05-06 13:47 39.45567 2.51644 2996 ft 187 kts 71°
2026-05-06 13:47 39.46180 2.53117 2997 ft 186 kts 58°
2026-05-06 13:47 39.46864 2.54547 2890 ft 187 kts 58°
2026-05-06 13:48 39.47545 2.55974 2684 ft 186 kts 58°
2026-05-06 13:48 39.48224 2.57399 2447 ft 185 kts 59°
2026-05-06 13:48 39.48897 2.58813 2204 ft 183 kts 59°
2026-05-06 13:48 39.49554 2.60196 1961 ft 178 kts 59°
2026-05-06 13:49 39.50190 2.61533 1729 ft 175 kts 59°
2026-05-06 13:49 39.50827 2.62874 1482 ft 169 kts 59°
2026-05-06 13:49 39.51429 2.64142 1266 ft 165 kts 59°
2026-05-06 13:49 39.52007 2.65360 1054 ft 154 kts 59°
2026-05-06 13:50 39.52558 2.66522 854 ft 150 kts 59°
2026-05-06 13:50 39.53097 2.67658 672 ft 146 kts 61°
2026-05-06 13:50 39.53626 2.68774 480 ft 144 kts 60°
2026-05-06 13:50 39.54145 2.69869 290 ft 143 kts 60°
2026-05-06 13:51 39.54664 2.70953 105 ft 140 kts 60°
2026-05-06 13:51 39.55137 2.71966 38 ft 113 kts 58°
2026-05-06 13:51 39.55426 2.72574 38 ft 37 kts 58°
2026-05-06 13:51 39.55494 2.72826 38 ft 26 kts 86°
2026-05-06 13:52 39.55501 2.73045 38 ft 17 kts 89°
2026-05-06 13:52 39.55510 2.73190 38 ft 16 kts 72°
2026-05-06 13:52 39.55569 2.73322 38 ft 18 kts 58°
2026-05-06 13:52 39.55628 2.73459 38 ft 15 kts 82°
2026-05-06 13:53 39.55564 2.73545 38 ft 12 kts 148°
2026-05-06 13:53 39.55526 2.73574 38 ft 4 kts 155°
2026-05-06 13:53 39.55487 2.73539 38 ft 9 kts 238°
2026-05-06 13:53 39.55454 2.73470 37 ft 9 kts 234°
2026-05-06 13:54 39.55405 2.73460 38 ft 7 kts 158°
2026-05-06 13:54 39.55365 2.73488 38 ft 6 kts 148°
2026-05-06 13:54 39.55322 2.73522 38 ft 8 kts 148°
2026-05-06 13:54 39.55277 2.73558 38 ft 7 kts 149°
2026-05-06 13:55 39.55235 2.73584 38 ft 5 kts 178°
2026-05-06 13:55 39.55209 2.73546 38 ft 9 kts 238°
2026-05-06 13:55 39.55196 2.73518 38 ft 0 kts 240°